Location: Unspecified
(0.0000°N, 0.0000°E)
Time: 14:34:15
(UTC+01:00)

Vanguard 1 - Visible Passes

Search period start: 16 January 2018 00:00
Search period end: 26 January 2018 00:00
Orbit: 649 x 3834 km, 34.3° (Epoch: 15 January)

Date Brightness Start Highest point End Pass type
(mag) Time Alt. Az. Time Alt. Az. Time Alt. Az.
16 Jan 13.5 05:00:50 12° NNW 05:10:57 19° NNE 05:24:48 10° ENE visible
16 Jan 11.4 19:50:53 10° S 19:52:51 12° SSE 19:54:46 10° ESE visible
16 Jan 12.3 22:08:34 10° WSW 22:08:44 11° WSW 22:08:44 11° WSW visible
17 Jan 13.5 05:20:38 10° NNW 05:33:52 24° NNE 05:50:26 10° ENE visible
17 Jan 10.7 20:10:18 10° SSW 20:14:00 23° SE 20:16:00 17° ESE visible
18 Jan 13.7 03:27:45 10° NNE 03:27:45 10° NNE 03:28:57 10° NNE visible
18 Jan 13.5 05:41:18 10° NNW 05:56:26 30° NNE 06:15:17 10° E visible
18 Jan 9.7 20:30:38 10° SW 20:34:59 45° SE 20:36:00 38° ESE visible
19 Jan 13.5 03:47:35 13° NNE 03:49:22 13° NNE 03:56:28 10° NE visible
19 Jan 13.4 06:01:58 10° NNW 06:18:41 38° NE 06:39:18 10° E visible
19 Jan 9.0 20:51:26 10° SW 20:55:55 88° NW 20:56:02 85° NNE visible
20 Jan 13.4 04:07:26 15° N 04:12:13 17° NNE 04:23:17 10° ENE visible
20 Jan 13.4 06:22:40 10° NNW 06:40:41 47° NE 07:02:35 10° ESE visible
20 Jan 10.3 21:12:41 10° WSW 21:16:04 39° WNW 21:16:04 39° WNW visible
21 Jan 13.3 04:27:18 16° N 04:34:46 22° NNE 04:49:21 10° ENE visible
21 Jan 13.4 06:43:29 10° NW 07:02:29 58° NE 07:25:15 10° ESE visible
21 Jan 11.5 21:34:28 10° W 21:36:07 18° WNW 21:36:07 18° WNW visible
22 Jan 13.2 04:47:13 17° N 04:56:58 28° NE 05:14:31 10° E visible
22 Jan 9.6 19:33:50 10° SW 19:38:58 54° SE 19:43:16 10° ENE visible
23 Jan 13.1 05:07:09 17° NNW 05:18:52 36° NE 05:38:47 10° E visible
23 Jan 9.3 19:54:52 10° WSW 19:59:56 76° NW 20:03:32 15° NE visible
24 Jan 13.5 03:14:22 14° NNE 03:14:22 14° NNE 03:21:14 10° NE visible
24 Jan 13.1 05:27:06 16° NNW 05:40:33 46° NE 06:02:16 10° ESE visible
24 Jan 10.3 20:16:20 10° WSW 20:20:50 37° NW 20:23:37 18° NNE visible
25 Jan 13.3 03:34:21 18° NNE 03:36:11 19° NE 03:47:51 10° ENE visible
25 Jan 13.1 05:47:05 14° NW 06:02:06 58° NE 06:25:05 10° ESE visible
25 Jan 11.1 20:38:27 10° W 20:41:49 19° NW 20:43:42 15° N visible
